{"data":{"norad_id":27424,"epoch":"2026-05-25T04:30:29.769120Z","epoch_age_seconds":54878,"freshness":"FRESH","line1":"1 27424U 02022A   26145.18784455  .00000638  00000+0  13679-3 0  9990","line2":"2 27424  98.4265 114.0139 0001909  64.8815 305.9047 14.62116117279911","mean_motion":14.62116117,"eccentricity":0.0001909,"inclination_deg":98.4265,"raan_deg":114.0139,"arg_perigee_deg":64.8815,"mean_anomaly_deg":305.9047,"bstar":0.00013679,"rev_number":27991,"period_min":98.487389835673,"perigee_km":685.00087083829,"apogee_km":687.69809177686,"semimajor_km":7064.4864813076,"source":"CELESTRAK","updated_at":"2026-05-25T13:38:12.742050Z"}}